Current Version              Previous Version:    01  02  03  04  05  06  07  08  09  10  11  12  13  14  15  16  17  18  19  20  21  22  23  24  25  26  27  28  29  30  
   31  32  33  34  35  36  37  38  39  40  41  42  43  44  45  46  47  48  49  50  51  52  53  54  55  56  57  58  59  60  

[Printable]
817
ASUS44 KLUB 202110
RWRTX
WEST TEXAS WEATHER ROUNDUP
NATIONAL WEATHER SERVICE LUBBOCK TX
400 PM CDT SUN APR 20 2014

NOTE: "FAIR" INDICATES FEW OR NO CLOUDS BELOW 12,000 FEET WITH NO
SIGNIFICANT WEATHER AND/OR OBSTRUCTIONS TO VISIBILITY.

TXZ004-006>008-010-012-014-016-OKZ002-202200-
TEXAS PANHANDLE/OKLAHOMA PANHANDLE

CITY           SKY/WX    TMP DP  RH WIND       PRES   REMARKS
AMARILLO       CLOUDY    68  48  48 SW10      29.96F
BORGER         LGT RAIN  66  48  52 SW12      29.95F
CANADIAN       PTSUNNY   79  52  38 S18       29.91F
DALHART        CLOUDY    68  46  45 NW7       29.97F
DUMAS          CLOUDY    69  46  44 S9        29.95F
GUYMON         LGT RAIN  71  46  40 SW20      29.90F
HEREFORD       PTSUNNY   72  44  36 W18       29.97F
PAMPA          TSTM      63  51  65 W8        29.97F
PERRYTON       PTSUNNY   59  52  77 NW3       29.94F
$$

TXZ026-029-035-045-048-202200-
SOUTHERN PANHANDLE/SOUTH PLAINS/ROLLING PLAINS

CITY           SKY/WX    TMP DP  RH WIND       PRES   REMARKS
CHILDRESS      PTSUNNY   77  54  44 S18G24    29.96F
SEMINOLE       MOSUNNY   77  47  35 SW15G24   30.02F
LUBBOCK        MOSUNNY   76  54  46 S20G26    29.97F
PLAINVIEW      MOSUNNY   78  41  26 SW18G31   29.95F
SNYDER         MOSUNNY   70  62  75 S13       30.03F
$$

TXZ052-054-060>062-072-078-127-140-154-169-202200-
PERMIAN BASIN/CONCHO VALLEY/BIG COUNTRY/EDWARDS PLATEAU

CITY           SKY/WX    TMP DP  RH WIND       PRES   REMARKS
ABILENE        CLOUDY    65  63  93 S10       30.05F
BIG SPRING     MOSUNNY   79  57  46 S15       30.03F
BROWNWOOD      CLOUDY    66  64  94 SW6       30.05F FOG
JUNCTION       CLOUDY    70  61  73 S12       30.05F
MIDLAND        SUNNY     77  55  46 SW12G20   30.01F
ODESSA         SUNNY     76  54  46 SW8       30.02F
SAN ANGELO     CLOUDY    70  64  81 S14       30.03F
SONORA         CLOUDY    70  64  83 SW8       30.06F
SWEETWATER     CLOUDY    66  65  96 SE7       30.07F
WINK           MOSUNNY   82  49  31 W13       29.99F
$$

TXZ055-058-074-075-080-082-202200-
FAR WEST/SOUTHWEST MOUNTAINS/TRANS PECOS

CITY           SKY/WX    TMP DP  RH WIND       PRES   REMARKS
ALPINE         MOSUNNY   77  37  23 SW5       30.13F
DRYDEN           N/A     83  61  47 E10       29.99F
EL PASO        MOSUNNY   75  39  27 VRB5      30.08F
FORT STOCKTON  MOSUNNY   80  49  33 N6        30.02F
GUADALUPE PASS SUNNY     71  41  33 W30G41    30.13F
MARFA          MOSUNNY   75  34  22 SW3       30.12F
PECOS          MOSUNNY   79  51  37 E5        29.99F
PRESIDIO       FAIR      85  35  16 SW14      30.00F
$$

TXZ014-016-019-021>030-083-202200
TEXAS TECH WEST TEXAS MESONET/TEXAS PANHANDLE/NORTHERN SOUTH PLAINS

CITY           SKY/WX    TMP DP  RH WIND       PRES   REMARKS
ABERNATHY 5ENE   N/A     73  54  50 S17       29.98F
AMARILLO 9NNE    N/A     69  52  53 S6        29.94F
AMARILLO 7SSE    N/A     72  47  40 SW13      29.96F
AMHERST 1NE      N/A     76  40  27 SW18G28   29.98S
BOOTLEG 11WNW    N/A     73  43  33 SW12      30.00F
CANADIAN 6E      N/A     78  53  40 SE18      29.92F
CAPROCK CYN SP   N/A     74  47  38 SW16      29.96F
CHILDRESS 2NNE   N/A     77  55  46 SE20      29.95F
CLARENDON 2WSW   N/A     73  53  50 SE17      29.95F
CLAUDE 12SW      N/A     73  45  36 SW8       29.95F
DIMMITT 2NE      N/A     74  40  29 SW21      29.97F
FLOYDADA 2NNE    N/A     76  47  35 S17       29.98F
FRIONA 2NE       N/A     71  45  39 SW15      29.99F
GOODLETT 3W      N/A     74  60  61 E17       29.96F
HART 3N          N/A     74  42  31 SW22      29.97F
HEREFORD 2NW   LGT RAIN  64  49  58 SW24G35   29.98R
MCLEAN 1E        N/A     67  57  71 S15       29.96F
MEMPHIS 1NE    LGT RAIN  66  60  83 S8        29.97F
MULESHOE 2SSW    N/A     76  40  27 SW17      29.98F
OLTON 6S         N/A     77  37  23 SW22      29.97F
PALO DURO SP     N/A     74  46  37 CALM      29.96F
PAMPA 2E         N/A     71  49  46 S13       29.95F
PLAINVIEW 1S     N/A     77  41  27 SW21      29.95F
SILVERTON 7ESE   N/A     70  50  49 S14       29.99S
TULIA 2ENE       N/A     78  41  27 SW20      29.95F
TURKEY 2WSW      N/A     77  49  37 S12       29.95S
UMBARGER 3NNE    N/A     74  44  33 SW18      29.95F
$$

TXZ033>036-039>041-045>048-202200
TEXAS TECH WEST TEXAS MESONET/SOUTH PLAINS

CITY           SKY/WX    TMP DP  RH WIND       PRES   REMARKS
AIKEN 3WSW       N/A     72  56  57 S20       29.97F
ANDREWS 2NE      N/A     78  47  34 SW9       30.02F
ANTON 6SSW       N/A     75  42  30 SW18      29.98F
BROWNFIELD 2S    N/A     73  56  55 S17       30.00F
DENVR CTY 7WNW   N/A     75  39  26 SW17G26   30.01F
GAIL 2ESE        N/A     76  56  49 S10       30.00F
LAMESA 2SE       N/A     75  58  55 S9        30.02F
LEVELLAND 4S     N/A     77  40  26 SW20      29.98F
LUBBOCK 3WNW     N/A     76  55  47 S16       29.98F
MORTON 1ENE      N/A     76  39  26 SW18      29.99F
ODONNELL 1N      N/A     75  53  45 SW13      30.01F
PLAINS 3N        N/A     76  42  29 SW20G32   30.01F
RALLS 1SE        N/A     76  51  40 SW16G25   30.00F
REESE CENTER     N/A     73  53  51 S20       29.98F
SEAGRAVES 1SW    N/A     74  54  48 S13       30.00F
SEMINOLE 2NNE    N/A     73  48  41 SW9       30.01F
SLATON 2NE       N/A     77  48  36 SW17G26   29.99F
SNYDER 3E        N/A     71  61  70 S12       30.02F
SUNDOWN 8SW      N/A     77  41  27 SW16      30.00F
TAHOKA 3NNE      N/A     77  49  37 SW16      29.99F
WOLFFORTH 6SSW   N/A     74  57  55 S18       30.00F
$$

TXZ031-032-036>038-042>044-202200-
TEXAS TECH WEST TEXAS MESONET/ROLLING PLAINS

CITY           SKY/WX    TMP DP  RH WIND       PRES   REMARKS
ASPERMONT 3NE    N/A     74  61  64 S14       30.00F
FLUVANNA 3WNW    N/A     75  55  49 S15       30.01F
GRAHAM 5SSW      N/A     75  52  44 S14       30.00F
GUTHRIE 10WSW    N/A     78  57  48 S17       29.97F
HASKELL 1NW      N/A     69  61  76 SE8       30.02F
JAYTON 1SSE      N/A     74  58  56 S12       30.00F
KNOX CITY 3NW    N/A     74  59  60 S14       30.00F
LK A HENRY 1NW   N/A     76  56  49 S10       29.98F
NORTHFIELD 1S    N/A     74  61  63 S13       29.95S
ODELL 4ENE       N/A     70  62  77 SE16      30.01F
PADUCAH 10SW     N/A     78  57  48 S17       29.96F
POST 1NE         N/A     78  52  40 S10       29.98F
RRING SPRGS 3N   N/A     75  53  45 S17G26    29.97F
SEYMOUR 3NW      N/A     69  60  73 SE15      30.02S
SPUR 1W          N/A     76  54  47 S12       29.97F
WEINERT 2NNE     N/A     71  62  74 S13       30.02F
WHITE RVR 6NE    N/A     77  54  44 S17       29.98F
$$

TXZ052-054-060>062-072-078-127-140-154-169-202200-
TEXAS TECH WEST TEXAS MESONET/PERMIAN BASIN/
CONCHO VALLEY/BIG COUNTRY/EDWARDS PLATEAU

CITY           SKY/WX    TMP DP  RH WIND       PRES   REMARKS
COYANOSA 2N      N/A     80  52  37 NW3       30.00F
JUNCTION 1SSW    N/A     70  62  76 S14       30.06F
MERTZON 3NNE     N/A     72  61  70 S9        30.05F
SAN ANGELO 7NW   N/A     72  63  74 SE13      30.04F
STRLNG CT 4WSW   N/A     73  58  59 S13       30.04F
ST LAWRNCE 5SW   N/A     72  58  60 S10       30.04F
SWEETWATR 11SW   N/A     67  62  83 S8        30.05F
WALL 1E          N/A     68  62  79 S12       30.05F
$$

TXZ055-058-074-075-080-082-202200-
TEXAS TECH WEST TEXAS MESONET/FAR WEST/SOUTHWEST MOUNTAINS/TRANS PECOS

CITY           SKY/WX    TMP DP  RH WIND       PRES   REMARKS
PRSMN GAP BBNP   N/A     82  49  31 NE1       29.99F
$$